Kuchera_Ratio
0.0 0.0 0.0 0.0 0.0 0.0 0.0 0.0 10.9 0.0 0.0 4.8 3.4 10.4 0.0 0.0 0.0 0.0 0.0 0.0 0.0 0.0 0.0 0.0 0.0 0.0 0.0 0.0 0.0 0.0 0.0 0.0 0.2 0.0 0.0 0.0 0.0 0.0 0.0 0.0 1.7 0.4 1.8 0.6
0.0 0.0 0.0 0.0 0.0 0.0 0.0 12.2 8.5 0.0 0.0 9.9 9.7 3.5 0.0 0.0 0.0 0.0 0.0 0.0 0.0 0.0 0.0 0.0 0.0 0.0 0.0 0.0 0.0 0.0 0.0 0.0 2.5 0.5 0.0 0.0 0.0 0.0 0.0 0.0 0.0 1.0 7.3 1.5
0.0 0.0 0.0 0.0 0.0 0.0 0.2 6.8 12.9 6.3 0.0 0.9 5.9 6.3 4.3 1.3 0.0 0.0 0.0 0.0 0.0 0.0 0.0 0.0 0.0 0.0 0.0 0.0 0.0 0.0 0.0 0.0 0.0 4.3 0.0 0.0 0.0 0.0 0.0 0.0 1.9 1.7 2.1 0.0
0.0 0.0 0.0 0.0 0.0 0.0 0.5 5.1 11.7 5.5 13.2 10.7 8.1 5.3 4.1 5.9 1.5 0.0 0.0 0.0 0.0 0.0 4.5 0.0 0.0 0.0 0.0 0.0 0.0 0.0 0.0 0.0 0.0 0.0 0.0 0.0 0.0 0.0 0.0 0.0 0.0 2.7 0.0 0.0
0.0 0.0 0.0 0.0 0.0 0.0 3.5 13.0 11.5 8.7 9.6 3.7 5.3 6.9 7.9 3.5 0.0 0.0 0.0 0.0 0.0 0.0 0.0 0.0 1.5 0.0 0.0 0.0 0.0 0.0 0.0 0.0 0.0 0.0 0.0 0.0 0.0 0.0 0.0 0.0 0.0 0.0 0.0 0.0
0.0 0.0 0.0 0.0 0.0 0.0 4.7 0.2 0.1 5.9 9.0 9.2 9.9 9.5 6.1 6.3 0.0 0.0 0.0 0.0 0.0 0.0 0.0 0.0 0.0 0.0 0.0 0.0 0.0 0.0 0.0 0.0 0.0 4.8 0.0 0.0 3.1 0.0 0.0 0.0 0.0 0.0 0.0 0.0
0.0 0.0 0.0 0.0 0.0 0.0 2.1 1.8 3.3 9.3 14.8 9.9 9.7 4.7 4.5 3.7 4.1 3.3 0.0 0.0 0.0 0.0 0.0 0.0 0.0 0.0 0.0 0.0 0.0 0.0 0.0 0.0 0.0 7.1 0.0 13.9 0.0 0.0 0.0 0.0 0.0 0.0 0.0 0.0
0.0 0.0 0.0 0.0 0.0 0.0 2.1 0.0 3.3 7.9 14.9 9.1 7.3 3.9 5.7 2.7 0.0 0.0 0.0 0.0 0.0 0.0 0.0 0.0 6.5 6.6 3.3 0.0 0.0 0.0 0.0 0.0 0.9 8.5 7.4 0.2 0.0 0.0 0.0 0.0 0.0 0.0 0.0 0.0
0.0 0.0 0.0 0.0 0.0 0.0 0.0 2.7 0.0 5.5 11.9 13.5 1.1 6.1 3.5 8.1 10.1 6.9 0.0 0.0 0.0 0.0 0.0 2.0 12.7 14.9 9.1 6.0 0.0 0.0 0.0 0.0 0.0 4.6 9.6 15.1 0.0 0.0 0.0 0.0 0.0 0.0 0.0 0.0
0.0 0.0 0.0 0.0 0.0 0.0 0.0 1.5 0.0 4.3 12.4 6.7 4.5 11.1 10.5 1.3 6.1 11.3 4.3 4.7 2.6 0.0 3.1 11.5 12.2 11.9 0.0 8.7 5.8 1.5 1.5 1.1 5.7 9.9 10.1 3.1 0.0 0.0 0.0 2.5 0.0 0.0 0.0 0.0
0.0 0.0 0.0 0.0 0.0 0.0 0.0 2.3 0.0 3.9 9.5 6.9 1.1 0.0 6.3 5.1 6.1 12.3 6.5 6.8 6.1 7.5 12.2 12.1 11.4 9.4 6.6 4.4 0.0 0.0 2.3 8.1 10.5 4.0 11.2 12.3 0.0 0.0 0.0 0.0 0.0 0.0 0.0 0.0
0.0 0.0 0.0 0.0 0.0 0.0 0.0 4.9 0.0 0.0 7.7 8.5 0.1 0.0 0.0 0.0 0.0 6.3 4.5 7.9 7.7 8.5 12.6 9.7 4.1 9.0 3.6 5.7 12.6 0.0 3.1 0.8 1.2 1.1 2.1 0.0 0.0 0.0 0.0 0.0 0.0 0.0 0.0 0.0
0.0 0.0 0.0 0.0 0.0 0.0 0.0 2.1 0.9 3.7 8.7 9.5 7.9 5.2 0.0 0.0 0.0 0.0 8.1 6.5 4.7 7.3 5.9 9.1 8.9 11.9 3.3 8.7 5.9 0.0 0.0 0.0 0.0 0.0 0.0 0.0 0.0 0.0 0.0 0.0 0.0 0.0 0.0 0.0
0.0 0.0 0.0 0.0 0.0 0.0 0.0 3.7 1.1 3.9 6.7 13.5 10.2 0.0 0.0 0.0 0.0 0.0 0.0 0.0 2.1 2.3 5.6 9.5 10.3 10.1 3.7 9.6 3.9 1.0 0.0 0.0 0.0 0.0 0.0 0.0 0.0 0.0 0.0 0.0 0.0 0.0 0.0 0.0
0.0 0.0 0.0 0.0 0.0 0.0 0.0 0.0 0.0 0.0 7.6 13.5 13.2 0.1 0.0 0.0 0.0 0.0 0.0 0.0 1.8 6.9 10.1 11.5 11.9 6.7 8.9 4.6 5.3 3.6 0.0 1.9 3.9 8.3 0.0 0.0 0.0 0.0 0.0 0.0 0.0 0.0 0.0 0.0
0.0 0.0 0.0 0.0 0.0 0.0 3.4 9.9 2.3 0.0 0.3 14.0 16.9 0.5 0.0 0.0 0.0 0.0 0.0 0.0 0.0 2.9 7.6 9.2 7.1 0.0 5.0 12.4 11.9 0.0 0.0 0.0 0.0 0.0 0.0 0.0 0.0 0.0 0.0 0.0 0.0 0.0 0.0 0.0
0.0 0.0 0.0 0.0 0.0 0.0 8.8 12.7 4.5 0.0 0.0 11.3 16.6 12.6 0.0 0.0 0.0 0.0 0.0 0.0 0.0 6.3 6.8 7.4 6.2 4.6 5.3 12.9 13.8 0.0 0.0 0.0 0.0 0.0 0.0 0.0 0.0 0.0 0.0 0.0 0.0 0.0 0.0 0.0
0.0 0.0 0.0 0.0 0.0 0.0 4.3 0.1 0.0 0.0 6.8 8.3 16.1 15.2 7.8 0.0 5.7 8.1 0.0 6.3 6.1 6.6 6.8 6.7 7.8 4.8 5.0 13.8 3.6 0.0 0.0 0.0 0.0 0.0 0.0 0.0 0.0 0.0 0.0 0.0 0.0 0.0 0.0 0.0
0.0 0.0 0.0 0.0 3.1 9.6 4.4 0.0 0.0 0.0 7.4 13.5 13.6 15.1 15.3 4.2 7.5 6.7 6.5 6.0 13.9 6.3 14.2 13.0 8.7 12.7 14.9 7.5 1.9 0.0 0.0 0.0 0.0 0.0 0.0 0.0 0.0 0.0 0.0 0.0 0.0 0.0 0.0 0.0
0.0 0.0 7.7 10.9 7.4 0.0 0.0 3.0 10.7 10.3 8.9 10.1 15.1 9.9 15.0 8.9 10.3 8.6 7.1 7.3 13.8 14.5 13.1 6.1 13.5 13.2 2.1 0.0 0.0 0.0 0.0 0.0 0.0 0.0 0.0 0.0 0.0 0.0 0.0 0.0 0.0 0.0 0.0 0.0
5.3 8.5 10.9 2.5 0.0 2.7 8.7 14.7 16.1 13.6 15.2 12.7 13.0 11.5 13.5 8.1 13.9 13.1 7.2 14.0 13.4 17.5 12.0 13.4 13.5 13.0 4.8 0.0 0.0 0.0 0.0 0.0 0.0 0.0 0.0 0.0 0.0 0.0 0.0 0.0 0.0 0.0 0.0 0.0
4.3 4.1 2.7 4.5 8.8 13.5 15.9 17.5 15.2 15.1 16.1 10.2 12.1 9.7 8.5 9.5 4.4 11.4 12.6 13.2 12.4 15.7 7.2 12.9 15.9 9.0 0.0 0.0 0.0 0.0 0.0 0.0 0.0 0.0 0.0 0.0 0.0 0.0 0.0 0.0 0.0 0.0 0.0 0.0
3.7 8.1 10.7 12.6 13.4 17.4 18.9 20.9 16.3 15.0 8.7 5.7 6.4 12.8 7.0 7.8 7.8 7.8 13.2 13.8 16.1 5.3 15.8 15.7 10.6 0.7 0.0 0.0 0.0 0.0 0.0 0.0 0.0 0.0 0.0 0.0 0.0 0.0 0.0 0.0 0.0 0.0 0.0 0.0
12.5 12.8 16.0 15.7 17.1 16.0 14.3 13.5 13.3 7.4 5.5 5.2 5.3 8.0 6.2 6.5 13.6 12.1 14.2 13.0 12.1 16.4 15.9 15.0 8.8 0.7 0.0 0.0 0.0 0.0 0.0 0.0 0.0 0.0 0.0 0.0 0.0 0.0 0.0 0.0 0.0 0.0 0.0 0.0
12.1 11.7 16.6 15.1 9.8 9.2 7.2 7.0 6.6 5.7 2.3 5.1 10.1 11.5 7.4 12.6 13.5 13.4 13.4 16.6 17.0 15.0 15.5 9.1 1.1 0.0 0.0 0.0 0.0 0.0 0.0 0.0 0.0 0.0 0.0 0.0 0.0 0.0 0.0 0.0 0.0 0.0 0.0 0.0
9.1 11.9 14.0 8.0 11.4 11.8 6.8 5.8 5.8 3.9 8.3 5.9 9.7 13.0 13.8 13.7 13.3 13.9 17.4 14.8 15.8 11.9 9.0 1.9 1.1 0.0 0.0 0.0 0.0 0.0 0.0 0.0 0.0 0.0 0.0 0.0 0.0 0.0 0.0 0.0 0.0 0.0 0.0 0.0
11.3 12.4 10.8 10.2 8.5 8.0 6.7 6.1 6.1 3.7 7.5 13.0 12.9 15.7 16.7 13.5 14.9 14.5 11.6 14.8 10.9 3.1 1.0 1.2 0.0 0.0 0.0 0.0 0.0 0.0 0.0 0.0 0.0 0.0 0.0 0.0 0.0 0.0 0.0 0.0 0.0 0.0 0.0 0.0